Havre, MT

7:12 AM MDT on July 28, 2017 (GMT -0600)
Havre City-County

Weather History for KHVR - March, 2014

Change the Weather History Date:

Wednesday, March 12, 2014

  Actual Average Record
Temperature  
Mean Temperature 45 °F 31 °F  
Max Temperature 57 °F 43 °F 70 °F (2007)
Min Temperature 32 °F 19 °F -26 °F (1897)
Degree Days  
Heating Degree Days 20 34  
Month to date heating degree days 529 437  
Since 1 July heating degree days 6770 6557  
Cooling Degree Days 0 0  
Month to date cooling degree days 0 0  
Year to date cooling degree days 0 0  
Moisture  
Dew Point 29 °F    
Average Humidity 59    
Maximum Humidity 78    
Minimum Humidity 40    
Precipitation  
Precipitation 0.00 in 0.01 in 0.42 in (1983)
Month to date precipitation 0.26 0.16  
Year to date precipitation 0.92 0.77  
Snow  
Snow 0.00 in 0.20 in 4.70 in (1931)
Month to date snowfall 1.0 2.5  
Since 1 July snowfall 38.4 30.4  
Snow Depth 0.00 in    
Sea Level Pressure  
Sea Level Pressure 30.11 in    
Wind  
Wind Speed 20 mph (SW)    
Max Wind Speed 29 mph    
Max Gust Speed 37 mph    
Visibility 10 miles    
Events      
T = Trace of Precipitation, MM = Missing Value Source: NWS Daily Summary

Daily Weather History Graph

Daily Weather History Graph

Search for Another Location

Airport or City:

Trip Planner

Search our weather history database for the weather conditions in past years. The results will help you decide how hot, cold, wet, or windy it might be!

Date:

Astronomy

Mar. 12, 2014 Rise Set
Actual Time 7:38 AM MDT 7:19 PM MDT
Civil Twilight 7:07 AM MDT 7:51 PM MDT
Nautical Twilight 6:30 AM MDT 8:27 PM MDT
Astronomical Twilight 5:53 AM MDT 9:04 PM MDT
Moon 3:40 PM MDT (3/12) 5:26 AM MDT (3/12)
Length of Visible Light 12h 44m
Length of Day
11h 41m
Waxing Gibbous, 86% of the Moon is Illuminated
Mar 12
Waxing Gibbous
Mar 16
Full
Mar 23
Last Quarter
Mar 30
New
Apr 7
First Quarter

Hourly Weather History & Observations

Time (MDT) Temp. Windchill Dew Point Humidity Pressure Visibility Wind Dir Wind Speed Gust Speed Precip Events Conditions
12:53 AM 32.0 °F 26.4 °F 27.0 °F 82% 30.26 in 10.0 mi SW 5.8 mph - N/A   Clear
1:53 AM 34.0 °F 24.6 °F 27.0 °F 75% 30.25 in 10.0 mi SW 13.8 mph - N/A   Clear
2:53 AM 36.0 °F 26.0 °F 27.0 °F 70% 30.24 in 10.0 mi SW 17.3 mph - N/A   Clear
3:53 AM 36.0 °F 26.3 °F 26.1 °F 67% 30.22 in 10.0 mi SW 16.1 mph - N/A   Mostly Cloudy
4:53 AM 37.0 °F 26.2 °F 26.1 °F 65% 30.20 in 10.0 mi SW 21.9 mph - N/A   Clear
5:53 AM 37.0 °F 26.7 °F 26.1 °F 65% 30.21 in 10.0 mi SW 19.6 mph - N/A   Clear
6:53 AM 34.0 °F 24.2 °F 26.1 °F 73% 30.23 in 10.0 mi WSW 15.0 mph - N/A   Clear
7:53 AM 36.0 °F 25.0 °F 25.0 °F 64% 30.24 in 10.0 mi SW 20.7 mph 29.9 mph N/A   Clear
8:53 AM 37.0 °F 26.7 °F 25.0 °F 62% 30.24 in 10.0 mi SW 19.6 mph - N/A   Clear
9:53 AM 39.9 °F 30.0 °F 26.1 °F 58% 30.24 in 10.0 mi SW 21.9 mph - N/A   Clear
10:53 AM 42.1 °F 32.3 °F 28.0 °F 58% 30.22 in 10.0 mi SW 24.2 mph - N/A   Clear
11:53 AM 46.0 °F 37.8 °F 30.0 °F 54% 30.19 in 10.0 mi SW 23.0 mph - N/A   Clear
12:53 PM 48.9 °F - 30.9 °F 50% 30.17 in 10.0 mi WSW 21.9 mph - N/A   Clear
1:53 PM 52.0 °F - 32.0 °F 47% 30.13 in 10.0 mi SW 23.0 mph - N/A   Clear
2:53 PM 54.0 °F - 32.0 °F 43% 30.08 in 10.0 mi WSW 23.0 mph 29.9 mph N/A   Clear
3:53 PM 55.9 °F - 32.0 °F 40% 30.04 in 10.0 mi WSW 23.0 mph - N/A   Clear
4:53 PM 57.0 °F - 33.1 °F 40% 30.01 in 10.0 mi WSW 19.6 mph 27.6 mph N/A   Clear
5:53 PM 55.0 °F - 34.0 °F 45% 29.99 in 10.0 mi SW 17.3 mph - N/A   Clear
6:53 PM 50.0 °F - 33.1 °F 52% 29.98 in 10.0 mi SW 15.0 mph - N/A   Clear
7:53 PM 46.0 °F 39.3 °F 32.0 °F 58% 29.96 in 10.0 mi SW 16.1 mph - N/A   Clear
8:53 PM 44.1 °F 36.8 °F 30.9 °F 60% 29.96 in 10.0 mi SW 16.1 mph - N/A   Clear
9:53 PM 44.1 °F 36.8 °F 30.0 °F 58% 29.95 in 10.0 mi SW 16.1 mph - N/A   Clear
10:53 PM 42.1 °F 32.6 °F 30.0 °F 62% 29.91 in 10.0 mi SW 23.0 mph 28.8 mph N/A   Clear
11:53 PM 43.0 °F 34.2 °F 28.0 °F 56% 29.89 in 10.0 mi SW 20.7 mph - N/A   Clear